DW0170 Weather Reports


time (UTC)temp
F
wind
direction
speed
knots
gust
knots
rain 1hr
in
rain 24hr
in
rain mn
in
humidity
%
barometer
mb
20260506211540 39 0 0.0 0.0 0.00 0.40 0.40 92 1005.8
20260506210038 39 0 0.0 3.5 0.00 0.40 0.40 92 1005.7
20260506204540 39 0 0.0 0.0 0.00 0.63 0.40 92 1005.6
20260506203102 39 0 0.9 2.6 0.00 0.63 0.40 92 1005.5
20260506201539 39 0 0.0 0.0 0.00 0.63 0.40 92 1005.5
20260506200046 39 0 0.0 0.0 0.00 0.63 0.40 92 1005.2
20260506194536 39 0 0.0 1.7 0.00 0.63 0.40 92 1005.2
20260506193039 38 0 0.0 0.0 0.00 0.63 0.40 92 1005.4
20260506191539 39 0 0.0 0.0 0.00 0.63 0.40 92 1005.1
20260506190046 39 0 0.0 1.7 0.00 0.63 0.40 92 1005.1
20260506184548 39 0 0.0 0.0 0.00 0.63 0.40 92 1004.9
20260506183035 41 0 0.0 0.0 0.00 0.63 0.40 92 1004.8
20260506181538 41 0 0.0 0.0 0.00 0.63 0.40 92 1004.7
20260506180039 42 0 0.0 0.0 0.00 0.63 0.40 92 1004.6
20260506174537 42 0 0.0 0.0 0.00 0.63 0.40 92 1004.5
20260506173047 42 0 0.0 2.6 0.00 0.63 0.40 92 1004.2
20260506171538 42 0 0.0 0.0 0.00 0.63 0.40 92 1004.0
20260506170041 42 0 0.0 0.0 0.00 0.63 0.40 92 1003.7
20260506164545 42 0 0.0 0.0 0.00 0.63 0.40 92 1003.8
20260506163055 42 0 0.9 2.6 0.00 0.63 0.40 92 1003.8
20260506161540 42 0 0.0 0.0 0.00 0.63 0.40 92 1003.8
20260506160038 43 201 0.9 5.2 0.00 0.63 0.40 92 1004.0
20260506154543 42 0 0.9 4.3 0.00 0.63 0.40 92 1004.1
20260506153040 43 0 0.0 5.2 0.00 0.63 0.40 92 1004.1
20260506151542 43 169 0.0 5.2 0.02 0.63 0.40 92 1004.0
20260506150038 42 0 1.7 4.3 0.02 0.63 0.40 92 1004.0
20260506144537 0 0 2.6 6.1 0.03 0.69 0.40 1003.9
20260506143039 42 0 1.7 7.0 0.03 0.69 0.40 92 1003.8
20260506141540 42 189 4.3 10.4 0.01 0.67 0.38 92 1003.8
20260506140040 43 0 1.7 9.6 0.00 0.66 0.37 92 1003.6
20260506134538 42 188 1.7 6.1 0.00 0.75 0.37 92 1003.6
20260506133038 43 217 1.7 7.8 0.00 0.75 0.37 92 1003.7
20260506131539 42 187 2.6 8.7 0.00 0.75 0.37 92 1003.6
20260506130040 42 200 4.3 7.8 0.00 0.75 0.37 92 1003.3
20260506124535 43 195 0.9 5.2 0.00 0.75 0.37 92 1003.1
20260506123041 43 188 1.7 5.2 0.00 0.75 0.37 92 1003.0
20260506121547 43 186 3.5 6.1 0.00 0.75 0.37 92 1003.0
20260506120040 43 165 0.9 7.0 0.00 0.75 0.37 92 1002.8
20260506114534 43 165 1.7 5.2 0.00 0.75 0.37 92 1002.6
20260506113034 42 182 2.6 5.2 0.00 0.75 0.37 92 1002.6
20260506111538 41 0 0.0 1.7 0.00 0.75 0.37 91 1002.5
20260506110042 42 0 1.7 3.5 0.00 0.75 0.37 92 1002.6
20260506104537 41 0 0.0 0.0 0.01 0.75 0.37 91 1002.6
20260506103038 41 0 0.0 0.0 0.02 0.75 0.37 91 1002.6
20260506101535 41 0 0.0 2.6 0.04 0.75 0.37 91 1002.6
20260506100039 40 0 0.0 1.7 0.05 0.75 0.37 92 1002.6
20260506094542 40 0 0.0 0.0 0.08 0.74 0.36 92 1002.7
20260506093039 39 0 0.0 0.0 0.14 0.73 0.35 91 1002.5
20260506091537 39 0 0.0 1.7 0.20 0.71 0.33 91 1002.3
20260506090037 39 0 0.0 0.0 0.24 0.70 0.32 91 1002.4
20260506084543 40 0 0.0 0.0 0.23 0.66 0.28 92 1002.4
20260506083038 40 0 0.0 2.6 0.16 0.58 0.21 92 1002.1
20260506081543 41 209 2.6 5.2 0.09 0.51 0.13 92 1001.7
20260506073038 42 0 0.0 0.0 0.01 0.43 0.05 91 1000.8
20260506071542 42 0 0.0 0.0 0.00 0.42 0.04 91 1000.7
20260506061543 41 0 0.0 0.0 0.00 0.42 0.04 91 1000.6
20260506044544 40 0 0.0 0.0 0.00 0.44 0.04 91 1000.7
20260506043037 39 0 0.0 0.0 0.00 0.44 0.04 91 1000.7
20260506041550 39 0 0.0 0.0 0.01 0.44 0.04 91 1000.7
20260506040041 39 315 0.9 1.7 0.01 0.44 0.04 91 1000.8
20260506034549 39 0 0.0 0.0 0.01 0.44 0.04 91 1000.9
20260506033040 39 0 0.0 0.0 0.01 0.44 0.04 91 1000.8
20260506031537 39 0 0.0 0.0 0.00 0.43 0.03 91 1001.0
20260506030039 39 0 0.0 0.0 0.00 0.43 0.03 91 1001.2
20260506024540 39 0 0.0 0.0 0.00 0.43 0.03 91 1001.4
20260506023040 39 0 0.0 0.0 0.00 0.43 0.03 91 1001.8
20260506021538 39 0 0.0 0.0 0.00 0.43 0.03 91 1001.8
20260506020042 39 0 0.0 0.0 0.00 0.43 0.03 91 1002.1
20260506014538 39 0 0.0 0.0 0.00 0.43 0.03 91 1002.5
20260506013050 39 0 0.0 0.0 0.00 0.43 0.03 91 1002.7
20260506011543 39 0 0.0 0.0 0.00 0.43 0.03 91 1002.8
20260506010043 40 0 0.0 0.0 0.00 0.43 0.03 90 1003.0
20260506004537 40 0 0.0 0.0 0.00 0.43 0.03 91 1003.2
20260506003038 40 0 0.0 0.0 0.00 0.43 0.03 90 1003.6
20260506001537 41 0 0.0 0.0 0.01 0.43 0.03 90 1003.8
20260506000037 41 0 0.0 0.0 0.01 0.43 0.03 90 1004.0
20260505234536 41 315 0.0 1.7 0.03 0.43 0.03 90 1004.6
20260505233035 41 0 0.0 0.0 0.03 0.43 0.03 91 1004.9
20260505231534 41 0 0.0 0.0 0.02 0.42 0.02 91 1004.9
20260505230100 41 0 0.0 3.5 0.02 0.42 0.02 90 1004.9
20260505224538 41 0 0.0 0.0 0.00 0.40 0.00 90 1005.0
20260505223042 41 0 0.0 0.0 0.00 0.40 0.00 90 1005.4
20260505221541 41 324 1.7 3.5 0.00 0.40 0.00 91 1005.5
20260505220051 41 0 0.0 2.6 0.00 0.40 0.00 91 1005.6
20260505214538 41 13 0.0 1.7 0.06 0.40 0.40 91 1005.9
20260505213037 41 0 0.0 3.5 0.16 0.40 0.40 90 1006.0